Regional Weather Roundup
Issued by NWS Cleveland, OH

Home | Current Version | Previous Version | Graphics & Text | Print | Product List | Glossary On
Versions: 1 2 3 4 5 6 7 8 9 10 11 12 13 14 15 16 17 18 19 20 21 22 23 24 25 26 27 28 29 30 31 32 33 34 35 36 37 38 39 40 41 42 43 44 45 46 47 48 49 50
000
ASUS41 KCLE 160702
RWRCLE
OHIO REGIONAL WEATHER ROUNDUP
NATIONAL WEATHER SERVICE CLEVELAND, OH
300 AM EDT TUE SEP 16 2014

NOTE: "FAIR" INDICATES FEW OR NO CLOUDS BELOW 12,000 FEET WITH NO
SIGNIFICANT WEATHER AND/OR OBSTRUCTIONS TO VISIBILITY.

OHZ001>008-015>018-024>027-034-035-043-044-160800-
   NORTHWEST OHIO

CITY           SKY/WX    TMP DP  RH WIND       PRES   REMARKS
DEFIANCE       CLOUDY    54  52  93 VRB3      30.13S FOG
FINDLAY        FOG       53  51  93 NW6       30.11R VSB 1/4
TOLEDO EXPRESS CLOUDY    52  52 100 W6        30.12R FOG
TOLEDO EXEC    CLOUDY    54  52  93 W6        30.12S
LIMA           FOG       52  50  93 NW3       30.12R VSB 3/4
$$

OHZ009>014-019>023-028>033-038-089-160800-
   NORTHEAST OHIO

CITY           SKY/WX    TMP DP  RH WIND       PRES   REMARKS
CLE-HOPKINS    PTCLDY    52  51  97 SW5       30.10S
CLE-LAKEFRONT  PTCLDY    58  50  75 W3        30.06S
CUY CO. ARPT   NOT AVBL
LORAIN-ELYRIA  CLOUDY    57  53  86 W6        30.09F FOG
ASHTABULA      CLOUDY    53  51  93 CALM      30.07F
AKRON-CANTON   CLOUDY    57  53  86 NW7       30.08R
WOOSTER        CLOUDY    56  53  90 NW9       30.09S
MANSFIELD      PTCLDY    52  51  97 NW3       30.10S
YOUNGSTOWN     CLOUDY    54  52  93 NW5       30.06S
$$

OHZ042-051>053-060>062-070>072-077>081-160800-
  SOUTHWEST OHIO

CITY           SKY/WX    TMP DP  RH WIND       PRES   REMARKS
CINC-COVINGTON DRIZZLE   59  56  89 NE5       30.10S
CINC-LUNKEN    CLOUDY    59  58  96 NE3       30.11S
HAMILTON       LGT RAIN  58  57  97 CALM      30.11F FOG
DAYTON         CLOUDY    58  56  93 N6        30.11S FOG
WRIGHT-PAT AFB NOT AVBL
DAYTON GENERAL LGT RAIN  57  56  96 N3        30.10S FOG
WILMINGTON     LGT RAIN  56  54  93 N7        30.11S FOG
$$

OHZ036-037-039>041-045>050-054>059-063>069-073>076-082>088-160800-
  CENTRAL AND SOUTHEAST OHIO

CITY           SKY/WX    TMP DP  RH WIND       PRES   REMARKS
COLUMBUS       CLOUDY    59  53  80 N5        30.09F
OSU AIRPORT    CLOUDY    56  53  90 N5        30.10F
BOLTON FIELD   CLOUDY    56  54  95 NW3       30.10F
RICKENBACK AFB NOT AVBL
NEWARK         CLOUDY    56  53  90 CALM      30.09S
MARION         CLOUDY    54  52  93 N3        30.11S
LANCASTER      CLOUDY    58  56  93 NW3       30.10F
ZANESVILLE     CLOUDY    57  53  86 NW3       30.09S
NEW PHILLY     CLOUDY    56  56 100 W3        30.08F FOG
$$


USA.gov is the U.S. government's official web portal to all federal, state and local government web resources and services.